Hettinger, ND

9:45 AM MST on November 18, 2017 (GMT -0700)
Hettinger Municipal

Weather History for KHEI - August, 2014

Change the Weather History Date:

Saturday, August 30, 2014

  Actual Average Record
Temperature  
Mean Temperature 64 °F -  
Max Temperature 78 °F 80 °F 100 °F (2008)
Min Temperature 50 °F 48 °F 30 °F (2003)
Degree Days  
Heating Degree Days 2    
Cooling Degree Days 0 3  
Month to date cooling degree days 93 147  
Year to date cooling degree days 228 347  
Since 1 June cooling degree days 206 342  
Growing Degree Days 14 (Base 50)    
Moisture  
Dew Point 55 °F    
Average Humidity 84    
Maximum Humidity 100    
Minimum Humidity 50    
Precipitation  
Precipitation 0.24 in 0.07 in 0.47 in (2010)
Month to date precipitation 2.12 1.64  
Year to date precipitation 6.72 12.22  
Sea Level Pressure  
Sea Level Pressure 29.83 in    
Wind  
Wind Speed 13 mph (ESE)    
Max Wind Speed 23 mph    
Max Gust Speed 31 mph    
Visibility 7 miles    
Events Fog , Rain , Thunderstorm    
T = Trace of Precipitation, MM = Missing Value Source: NWS Daily Summary

Daily Weather History Graph

Daily Weather History Graph

Search for Another Location

Airport or City:

Trip Planner

Search our weather history database for the weather conditions in past years. The results will help you decide how hot, cold, wet, or windy it might be!

Date:

Astronomy

Aug. 30, 2014 Rise Set
Actual Time 6:08 AM MDT 7:32 PM MDT
Civil Twilight 5:37 AM MDT 8:03 PM MDT
Nautical Twilight 5:00 AM MDT 8:41 PM MDT
Astronomical Twilight 4:19 AM MDT 9:21 PM MDT
Moon 11:16 AM MDT (8/30) 9:49 PM MDT (8/30)
Length of Visible Light 14h 25m
Length of Day
13h 23m
Waxing Crescent, 23% of the Moon is Illuminated
Aug 30
Waxing Crescent
Sep 2
First Quarter
Sep 8
Full
Sep 15
Last Quarter
Sep 24
New

Hourly Weather History & Observations

Time (MDT) Temp. Dew Point Humidity Pressure Visibility Wind Dir Wind Speed Gust Speed Precip Events Conditions
12:53 AM 50.0 °F 48.0 °F 93% 30.00 in 10.0 mi Calm Calm - N/A   Partly Cloudy
2:53 AM 51.1 °F 48.9 °F 92% 29.97 in 8.0 mi SE 4.6 mph - N/A   Clear
3:53 AM 51.1 °F 48.9 °F 92% 29.96 in 6.0 mi ESE 5.8 mph - N/A   Clear
4:33 AM 51.1 °F 50.0 °F 96% 29.96 in 4.0 mi SE 6.9 mph - N/A   Scattered Clouds
4:37 AM 51.1 °F 50.0 °F 96% 29.96 in 2.5 mi ESE 5.8 mph - N/A   Mostly Cloudy
4:47 AM 51.8 °F 50.0 °F 94% 29.96 in 4.0 mi ESE 5.8 mph - N/A   Scattered Clouds
4:53 AM 51.1 °F 48.9 °F 92% 29.94 in 6.0 mi SE 5.8 mph - N/A   Scattered Clouds
5:10 AM 52.0 °F 50.0 °F 93% 29.96 in 7.0 mi ESE 6.9 mph - N/A   Mostly Cloudy
5:28 AM 53.1 °F 52.0 °F 96% 29.96 in 2.0 mi SE 9.2 mph - N/A   Overcast
5:36 AM 53.1 °F 52.0 °F 96% 29.96 in 1.2 mi SE 9.2 mph - N/A   Overcast
5:49 AM 53.6 °F 53.6 °F 100% 29.95 in 0.5 mi SE 8.1 mph - N/A Fog Fog
5:53 AM 54.0 °F 53.1 °F 97% 29.94 in 0.5 mi SE 10.4 mph - N/A Fog Fog
6:32 AM 54.0 °F 53.1 °F 97% 29.95 in 0.2 mi SE 13.8 mph - N/A Fog Fog
6:53 AM 54.0 °F 52.0 °F 93% 29.93 in 0.8 mi SE 12.7 mph - N/A   Mist
7:15 AM 54.0 °F 52.0 °F 93% 29.95 in 0.2 mi SE 11.5 mph - N/A Fog Fog
7:24 AM 53.1 °F 52.0 °F 96% 29.94 in 0.5 mi SE 11.5 mph - N/A Fog Fog
7:39 AM 53.1 °F 51.1 °F 93% 29.94 in 2.0 mi SE 15.0 mph - N/A   Overcast
7:53 AM 55.0 °F 53.1 °F 93% 29.93 in 9.0 mi SE 11.5 mph - N/A   Overcast
8:31 AM 55.0 °F 53.1 °F 93% 29.92 in 10.0 mi SE 15.0 mph 20.7 mph N/A   Mostly Cloudy
8:43 AM 55.9 °F 53.1 °F 90% 29.92 in 10.0 mi SE 13.8 mph - N/A   Scattered Clouds
8:53 AM 57.0 °F 53.1 °F 87% 29.91 in 10.0 mi SSE 15.0 mph - N/A   Scattered Clouds
9:07 AM 59.0 °F 54.0 °F 83% 29.91 in 10.0 mi SE 17.3 mph - N/A   Mostly Cloudy
9:14 AM 57.9 °F 53.1 °F 84% 29.91 in 10.0 mi SSE 17.3 mph - N/A   Scattered Clouds
9:25 AM 61.0 °F 54.0 °F 78% 29.90 in 10.0 mi SE 15.0 mph 23.0 mph N/A   Mostly Cloudy
9:34 AM 61.0 °F 53.1 °F 75% 29.90 in 10.0 mi SE 16.1 mph 21.9 mph N/A   Scattered Clouds
9:53 AM 64.0 °F 54.0 °F 70% 29.88 in 10.0 mi SE 18.4 mph 23.0 mph N/A   Partly Cloudy
10:53 AM 68.0 °F 54.0 °F 61% 29.84 in 10.0 mi SE 18.4 mph - N/A   Clear
11:53 AM 70.0 °F 55.9 °F 61% 29.81 in 10.0 mi SE 18.4 mph 27.6 mph N/A   Clear
12:53 PM 73.9 °F 57.0 °F 55% 29.78 in 10.0 mi SE 16.1 mph 27.6 mph N/A   Clear
1:53 PM 75.0 °F 57.0 °F 53% 29.75 in 10.0 mi SE 18.4 mph 27.6 mph N/A   Clear
2:53 PM 75.9 °F 57.9 °F 54% 29.72 in 10.0 mi SE 17.3 mph 26.5 mph N/A   Clear
3:53 PM 77.0 °F 57.9 °F 52% 29.71 in 10.0 mi SSE 15.0 mph 20.7 mph N/A   Scattered Clouds
4:53 PM 77.0 °F 57.9 °F 52% 29.69 in 10.0 mi ESE 13.8 mph - N/A   Scattered Clouds
5:53 PM 75.0 °F 59.0 °F 57% 29.68 in 10.0 mi East 12.7 mph - N/A   Clear
6:53 PM 71.1 °F 57.9 °F 63% 29.62 in 10.0 mi East 16.1 mph - N/A   Clear
7:53 PM 68.0 °F 57.9 °F 70% 29.63 in 10.0 mi ENE 12.7 mph - N/A   Scattered Clouds
8:04 PM 68.0 °F 57.0 °F 68% 29.66 in 10.0 mi East 12.7 mph - N/A Thunderstorm Mostly Cloudy
8:24 PM 66.9 °F - N/A% 29.66 in - ENE 10.4 mph - N/A Thunderstorm Thunderstorm
9:16 PM 60.1 °F 57.0 °F 90% 29.73 in 10.0 mi North - - 0.01 in Rain , Thunderstorm Light Rain
9:33 PM 60.1 °F 57.9 °F 93% 29.70 in 10.0 mi North 19.6 mph 27.6 mph 0.02 in Rain Light Rain
9:42 PM 61.0 °F 59.0 °F 93% 29.70 in 10.0 mi NNE 15.0 mph 25.3 mph 0.02 in   Overcast
9:53 PM 61.0 °F 60.1 °F 97% 29.68 in 10.0 mi NE 13.8 mph 23.0 mph 0.02 in Thunderstorm Overcast
10:08 PM 61.0 °F 57.9 °F 90% 29.74 in 10.0 mi NE 13.8 mph - N/A Thunderstorm Thunderstorm
10:17 PM 60.1 °F 57.9 °F 93% 29.75 in 1.8 mi NNE 11.5 mph - 0.20 in Rain , Thunderstorm Heavy Thunderstorms and Rain
10:24 PM 60.1 °F 59.0 °F 96% 29.73 in 3.0 mi ENE 13.8 mph - 0.22 in Rain , Thunderstorm Thunderstorms and Rain
10:40 PM 60.1 °F 59.0 °F 96% 29.72 in 9.0 mi ENE 16.1 mph - 0.22 in Rain , Thunderstorm Light Rain
10:50 PM 60.8 °F 59.0 °F 94% 29.72 in 10.0 mi East 15.0 mph - 0.22 in Rain Light Rain
10:53 PM 60.1 °F 59.0 °F 96% 29.68 in 10.0 mi ENE 15.0 mph - 0.22 in Rain Light Rain
11:53 PM 60.1 °F 57.9 °F 93% 29.67 in 10.0 mi SSE 4.6 mph - 0.00 in   Overcast